EW4210 Weather Reports


time (UTC)temp
C
wind
direction
speed
KPH
gust
KPH
rain 1hr
cm
rain 24hr
cm
rain mn
cm
humidity
%
barometer
mb
20260507184525 18 298 3.2 9.7 0.00 0.20 0.00 53 1016.6
20260507183020 18 325 1.6 9.7 0.00 0.28 0.00 52 1016.8
20260507181549 19 209 1.6 6.4 0.00 0.28 0.00 57 1017.0
20260507180038 19 301 1.6 4.8 0.00 0.28 0.00 53 1017.1
20260507174510 18 86 1.6 8.0 0.00 0.28 0.00 57 1017.4
20260507173059 18 347 0.0 4.8 0.00 0.43 0.00 55 1017.8
20260507171531 17 12 1.6 8.0 0.00 0.43 0.00 55 1018.1
20260507170018 17 227 1.6 6.4 0.00 0.43 0.00 51 1018.3
20260507164603 17 37 1.6 4.8 0.00 0.43 0.00 55 1018.4
20260507163033 17 110 1.6 6.4 0.00 0.43 0.00 54 1018.6
20260507161520 17 333 0.0 4.8 0.00 0.43 0.00 56 1018.7
20260507160051 16 321 0.0 6.4 0.00 0.43 0.00 63 1018.8
20260507154537 16 298 3.2 6.4 0.00 0.43 0.00 65 1018.8
20260507153012 16 315 3.2 4.8 0.00 0.43 0.00 68 1018.8
20260507151548 15 244 0.0 3.2 0.00 0.43 0.00 76 1018.9
20260507150025 15 311 0.0 6.4 0.00 0.43 0.00 73 1018.8
20260507144510 14 350 0.0 4.8 0.00 0.43 0.00 74 1018.8
20260507143046 14 34 1.6 3.2 0.00 0.43 0.00 74 1018.7
20260507141522 13 15 0.0 0.0 0.00 0.43 0.00 79 1018.6
20260507140056 13 296 0.0 1.6 0.00 0.43 0.00 80 1018.2
20260507140009 12 296 0.0 1.6 0.00 0.43 0.00 80 1018.3
20260507134547 12 348 0.0 3.2 0.00 0.43 0.00 81 1018.4
20260507133016 11 38 0.0 3.2 0.00 0.43 0.00 83 1018.6
20260507131607 10 348 1.6 4.8 0.00 0.43 0.00 85 1018.6
20260507130041 10 348 0.0 3.2 0.00 0.43 0.00 88 1018.5
20260507124520 10 325 0.0 3.2 0.00 0.43 0.00 89 1018.3
20260507123011 9 344 0.0 4.8 0.00 0.43 0.00 91 1018.4
20260507121540 9 337 1.6 4.8 0.00 0.43 0.00 91 1018.3
20260507120022 8 337 1.6 4.8 0.00 0.43 0.00 92 1018.2
20260507114503 8 328 0.0 0.0 0.00 0.43 0.00 93 1017.7
20260507113036 8 328 0.0 1.6 0.00 0.43 0.00 93 1017.1
20260507111522 8 328 0.0 0.0 0.00 0.43 0.00 93 1017.2
20260507110105 8 328 0.0 0.0 0.00 0.43 0.00 94 1017.1
20260507104538 8 328 0.0 0.0 0.00 0.43 0.00 95 1017.0
20260507103023 8 328 0.0 0.0 0.00 0.46 0.00 95 1016.8
20260507101601 8 328 0.0 0.0 0.00 0.46 0.00 95 1016.8
20260507101507 8 328 0.0 0.0 0.00 0.46 0.00 95 1016.8
20260507100050 8 328 0.0 0.0 0.00 0.46 0.00 94 1016.6
20260507094526 9 328 0.0 0.0 0.00 0.46 0.00 94 1016.5
20260507093006 9 328 0.0 0.0 0.00 0.56 0.00 93 1016.4
20260507091602 10 328 0.0 0.0 0.00 0.56 0.00 93 1016.5
20260507090036 10 328 0.0 0.0 0.00 0.56 0.00 94 1016.7
20260507084503 10 328 0.0 0.0 0.00 0.56 0.00 94 1016.6
20260507083044 10 328 0.0 0.0 0.00 0.56 0.00 94 1016.4
20260507081530 10 140 0.0 0.0 0.00 0.56 0.00 94 1016.4
20260507080005 11 140 0.0 0.0 0.00 0.56 0.00 94 1016.4
20260507074546 11 140 0.0 0.0 0.00 0.56 0.00 95 1016.2
20260507073025 11 140 0.0 0.0 0.00 0.56 0.00 95 1016.2
20260507071511 11 140 0.0 0.0 0.00 0.56 0.00 95 1016.3
20260507070059 11 140 0.0 0.0 0.00 0.56 0.00 95 1016.3
20260507064532 11 140 0.0 0.0 0.00 0.56 0.00 95 1016.2
20260507063016 11 140 0.0 0.0 0.00 0.56 0.56 95 1016.3
20260507061551 11 140 0.0 0.0 0.00 0.56 0.56 95 1016.4
20260507060037 12 140 0.0 0.0 0.00 0.56 0.56 95 1016.4
20260507054513 12 140 0.0 0.0 0.00 0.56 0.56 96 1016.4
20260507053007 12 140 0.0 1.6 0.00 0.76 0.56 96 1016.2
20260507051546 12 140 0.0 0.0 0.00 0.76 0.56 95 1016.4
20260507050039 11 140 0.0 1.6 0.00 0.76 0.56 95 1016.5
20260507044507 11 140 0.0 0.0 0.00 0.76 0.56 96 1016.4
20260507043047 11 140 0.0 1.6 0.00 0.76 0.56 95 1016.4
20260507041530 11 140 0.0 0.0 0.00 0.76 0.56 96 1016.3
20260507040006 11 140 0.0 0.0 0.00 0.76 0.56 96 1016.3
20260507034556 11 140 0.0 0.0 0.00 0.76 0.56 96 1016.4
20260507033039 11 140 0.0 1.6 0.00 0.76 0.56 96 1016.3
20260507031517 11 140 0.0 1.6 0.00 0.76 0.56 95 1016.2
20260507030049 11 140 0.0 0.0 0.00 0.76 0.56 95 1015.8
20260507024547 11 140 0.0 0.0 0.00 0.76 0.56 95 1015.8
20260507023009 11 140 0.0 0.0 0.00 0.76 0.56 95 1015.4
20260507021551 11 140 0.0 1.6 0.00 0.76 0.56 95 1015.6
20260507020029 11 140 0.0 0.0 0.00 0.76 0.56 94 1015.4
20260507014524 11 140 0.0 0.0 0.00 0.76 0.56 94 1015.0
20260507013050 11 140 0.0 1.6 0.00 0.76 0.56 94 1014.7
20260507011541 11 140 0.0 0.0 0.00 0.76 0.56 93 1014.7
20260507010018 11 140 0.0 1.6 0.00 0.76 0.56 93 1014.8
20260507004553 11 140 0.0 1.6 0.00 0.76 0.56 92 1014.9
20260507003034 12 140 0.0 0.0 0.00 0.76 0.56 92 1014.9
20260507001520 12 113 0.0 3.2 0.00 0.76 0.56 92 1014.9
20260507000005 12 113 0.0 3.2 0.00 0.76 0.56 91 1014.9
20260506234546 12 113 0.0 1.6 0.00 0.76 0.56 91 1014.8
20260506233028 12 113 0.0 3.2 0.00 0.76 0.56 91 1014.9
20260506231510 12 113 0.0 4.8 0.00 0.76 0.56 91 1015.1
20260506230050 12 130 1.6 4.8 0.00 0.76 0.56 93 1015.1
20260506224532 11 57 0.0 0.0 0.00 0.76 0.56 93 1014.3
20260506223014 11 57 0.0 0.0 0.00 0.76 0.56 93 1014.6
20260506221553 11 57 0.0 0.0 0.03 0.76 0.56 92 1014.6
20260506220046 11 57 0.0 1.6 0.03 0.76 0.56 93 1014.4
20260506214522 11 57 0.0 3.2 0.03 0.76 0.56 93 1014.1
20260506213006 11 57 1.6 4.8 0.03 0.76 0.56 93 1014.0
20260506211551 11 43 1.6 3.2 0.00 0.71 0.53 95 1014.3
20260506210030 11 43 0.0 3.2 0.03 0.71 0.53 94 1014.2
20260506204508 11 66 0.0 3.2 0.05 0.71 0.53 95 1014.2
20260506203052 11 34 0.0 3.2 0.08 0.71 0.53 95 1014.1
20260506201530 11 78 1.6 4.8 0.13 0.71 0.53 95 1014.2
20260506200020 11 26 1.6 4.8 0.13 0.71 0.51 95 1014.6
20260506194508 11 102 1.6 4.8 0.13 0.69 0.48 95 1015.4
20260506193049 10 115 1.6 4.8 0.10 0.66 0.46 95 1016.0
20260506191532 10 74 0.0 3.2 0.08 0.61 0.41 95 1016.4